Weather in Verkh-Koyen

Russia / Novosibirsk Oblast     54°52′03″N   83°30′24″E
temp.,
°C
wind,
m/s
gust,
m/s
humid.,
%
clouds,
%
prec.,
mm/h
press.,
hPa
HPBL,
m
3 march, wed
wed301:00−16sw129897 0.1 101720
04:00−17sw119999 0.1 101720
07:00−19sw129997 0.1 101820
10:00−15ssw129693 0.1 1019140
13:00−12ssw249293 0.2 1019354
16:00−10ssw3592100 0.1 1020452
19:00−13ssw3595100 0.1 1021141
22:00−14ssw389689 0.0 1023195
4 march, thu
thu401:00−15ssw4119686 0.1 1023365
04:00−16s4129597 0.0 1022371
07:00−15s5149599 0.1 1022428
10:00−10ssw61390100 0.6 1021637
13:00−7ssw71389100 0.6 1021681
16:00−5ssw71392100 0.6 1019766
19:00−5ssw61488100 0.8 1018758
22:00−6ssw61587100 0.0 1018653
5 march, fri
fri501:00−8s51489100 0.0 1016491
04:00−8s51585100 0.0 1014503
07:00−8s5148296 0.0 1014514
10:00−6ssw61495100 0.4 1012699
13:00−4sw71395100 2.5 1012898
16:00−2wsw81374100 0.8 10151393
19:00−5sw71582100 0.8 1017784
22:00−6sw81693100 0.7 10181218
6 march, sat
sat601:00−6sw71493100 1.8 10191054
04:00−6sw61294100 0.6 1020843
07:00−6sw61395100 1.9 1019745
10:00−6ssw81494100 1.6 1018839
13:00−5ssw81586100 2.2 1017908
16:00−4sw81680100 0.0 10151015
19:00−5sw81783100 0.0 1014987
22:00−5sw81688100 0.2 1014931
7 march, sun
sun701:00−5sw71588100 0.3 1014829
04:00−5sw61490100 0.0 1015720
07:00−6sw4119399 0.1 1017377
10:00−5ssw51095100 0.1 1017441
13:00−4ssw61295100 1.8 1016595
16:00−3ssw71394100 1.6 1014768
19:00−3ssw61582100 1.6 1014661
22:00−3sw61583100 0.0 1014632